Eastover, SC

10:46 AM EST on November 23, 2017 (GMT -0500)
McEntire Angs

Weather History for KMMT - December, 2012

Change the Weather History Date:

Saturday, December 15, 2012

  Actual Average Record
Temperature  
Mean Temperature 46 °F -  
Max Temperature 59 °F 55 °F 73 °F (2006)
Min Temperature 33 °F 34 °F 15 °F (2010)
Degree Days  
Heating Degree Days 19    
Moisture  
Dew Point 41 °F    
Average Humidity 77    
Maximum Humidity 96    
Minimum Humidity 47    
Precipitation  
Precipitation 0.00 in - - ()
Sea Level Pressure  
Sea Level Pressure 30.18 in    
Wind  
Wind Speed 1 mph (ESE)    
Max Wind Speed 6 mph    
Max Gust Speed -    
Visibility 10 miles    
Events      
Averages and records for this station are not official NWS values.
T = Trace of Precipitation, MM = Missing Value Source: NWS Daily Summary

Daily Weather History Graph

Daily Weather History Graph

Search for Another Location

Airport or City:

Trip Planner

Search our weather history database for the weather conditions in past years. The results will help you decide how hot, cold, wet, or windy it might be!

Date:

Astronomy

Dec. 15, 2012 Rise Set
Actual Time 7:21 AM EST 5:15 PM EST
Civil Twilight 6:53 AM EST 5:43 PM EST
Nautical Twilight 6:22 AM EST 6:14 PM EST
Astronomical Twilight 5:51 AM EST 6:45 PM EST
Moon 9:17 AM EST (12/15) 8:12 PM EST (12/15)
Length of Visible Light 10h 50m
Length of Day
9h 54m
Waxing Crescent, 8% of the Moon is Illuminated
Dec 15
Waxing Crescent
Dec 20
First Quarter
Dec 28
Full
Jan 4
Last Quarter
Jan 11
New

Hourly Weather History & Observations

Time (EST) Temp. Windchill Dew Point Humidity Pressure Visibility Wind Dir Wind Speed Gust Speed Precip Events Conditions
12:55 AM 33.4 °F - 32.2 °F 95% 30.26 in 10.0 mi Calm Calm - N/A   Scattered Clouds
1:55 AM 35.1 °F - 33.8 °F 95% 30.24 in 10.0 mi Calm Calm - N/A   Mostly Cloudy
2:55 AM 36.7 °F - 34.9 °F 93% 30.22 in 10.0 mi Calm Calm - N/A   Mostly Cloudy
3:55 AM 37.9 °F - 35.6 °F 91% 30.22 in 10.0 mi Calm Calm - N/A   Scattered Clouds
4:55 AM 38.7 °F - 36.5 °F 92% 30.20 in 10.0 mi Calm Calm - N/A   Overcast
5:55 AM 39.9 °F - 37.0 °F 89% 30.22 in 10.0 mi Calm Calm - N/A   Mostly Cloudy
6:55 AM 38.5 °F - 37.2 °F 95% 30.25 in 10.0 mi Calm Calm - N/A   Scattered Clouds
7:55 AM 38.8 °F 36.5 °F 37.8 °F 96% 30.25 in 10.0 mi NNE 3.5 mph - N/A   Overcast
8:55 AM 43.0 °F - 35.2 °F 74% 30.26 in 10.0 mi Calm Calm - N/A   Overcast
9:55 AM 45.0 °F - 36.5 °F 72% 30.25 in 10.0 mi Calm Calm - N/A   Overcast
10:37 AM 48.2 °F - 35.6 °F 62% 30.25 in 10.0 mi North 3.5 mph - N/A   Overcast
10:55 AM 48.6 °F - 36.7 °F 64% 30.26 in 10.0 mi North 4.6 mph - N/A   Overcast
11:55 AM 50.2 °F - 35.8 °F 58% 30.23 in 10.0 mi Calm Calm - N/A   Mostly Cloudy
12:55 PM 54.0 °F - 35.4 °F 50% 30.20 in 10.0 mi SE 5.8 mph - N/A   Mostly Cloudy
1:55 PM 57.4 °F - 37.4 °F 47% 30.17 in 10.0 mi Calm Calm - N/A   Mostly Cloudy
2:55 PM 59.5 °F - 43.2 °F 55% 30.16 in 10.0 mi South 5.8 mph - N/A   Mostly Cloudy
3:55 PM 58.8 °F - 44.2 °F 58% 30.16 in 10.0 mi Calm Calm - N/A   Mostly Cloudy
4:55 PM 57.9 °F - 44.4 °F 61% 30.15 in 10.0 mi Calm Calm - N/A   Overcast
5:55 PM 56.3 °F - 46.0 °F 68% 30.14 in 10.0 mi Calm Calm - N/A   Overcast
6:55 PM 55.8 °F - 46.6 °F 71% 30.15 in 10.0 mi Calm Calm - N/A   Overcast
7:55 PM 55.8 °F - 46.0 °F 70% 30.14 in 10.0 mi Calm Calm - N/A   Overcast
8:52 PM 53.6 °F - 46.4 °F 77% 30.14 in 10.0 mi Calm Calm - N/A   Scattered Clouds
8:55 PM 53.6 °F - 47.3 °F 79% 30.14 in 10.0 mi Calm Calm - N/A   Scattered Clouds
9:20 PM 53.6 °F - 46.4 °F 77% 30.14 in 10.0 mi ENE 3.5 mph - N/A   Mostly Cloudy
9:55 PM 52.3 °F - 47.5 °F 84% 30.12 in 10.0 mi Calm Calm - N/A   Overcast
10:27 PM 50.0 °F - 46.4 °F 87% 30.12 in 10.0 mi Calm Calm - N/A   Scattered Clouds
10:55 PM 50.2 °F - 45.9 °F 85% 30.12 in 10.0 mi South 3.5 mph - N/A   Scattered Clouds
10:59 PM 50.0 °F - 46.4 °F 87% 30.12 in 10.0 mi SSE 3.5 mph - N/A   Mostly Cloudy
11:44 PM 50.0 °F - 46.4 °F 87% 30.09 in 10.0 mi ESE 4.6 mph - N/A   Overcast
11:47 PM 50.0 °F - 46.4 °F 87% 30.10 in 10.0 mi SE 4.6 mph - N/A   Overcast
11:55 PM 50.5 °F - 46.8 °F 87% 30.11 in 10.0 mi South 3.5 mph - N/A   Overcast